• în România
  • Lista ţărilor
  • Pe 7 zile
  • Temperatura apei
  • Hartă satelitară
  • Meteo pe hartă
  • Widget-uri
  • user-avatar
    Intrare

    Meteo pe oră la Ganja

    Astăzi, 28 Martie, Marţi

    Timp Temperatura Precipitaţii Vânt Presiune Umiditate
    00:00 +10°C° 0 mm 2 m/s 720 mmHg 60%
    01:00 +9°C° 0 mm 2 m/s 720 mmHg 61%
    02:00 +9°C° 0 mm 2 m/s 720 mmHg 63%
    03:00 +9°C° 0 mm 2 m/s 720 mmHg 64%
    04:00 +9°C° 0 mm 2 m/s 721 mmHg 69%
    05:00 +8°C° 0 mm 3 m/s 721 mmHg 73%
    06:00 +7°C° 0 mm 3 m/s 721 mmHg 78%
    07:00 +7°C° 0,2 mm 4 m/s 722 mmHg 74%
    08:00 +8°C° 0,2 mm 5 m/s 722 mmHg 70%
    09:00 +8°C° 0 mm 5 m/s 723 mmHg 73%
    10:00 +8°C° 0,6 mm 5 m/s 723 mmHg 70%
    11:00 +8°C° 0,6 mm 5 m/s 723 mmHg 68%
    12:00 +8°C° 0,6 mm 5 m/s 723 mmHg 65%
    13:00 +10°C° 0,4 mm 4 m/s 723 mmHg 63%
    14:00 +11°C° 0,4 mm 4 m/s 723 mmHg 61%
    15:00 +11°C° 0,4 mm 3 m/s 723 mmHg 59%
    16:00 +11°C° 0,2 mm 3 m/s 724 mmHg 60%
    17:00 +10°C° 0,2 mm 2 m/s 724 mmHg 62%
    18:00 +9°C° 0,2 mm 2 m/s 724 mmHg 63%
    19:00 +8°C° 0 mm 2 m/s 725 mmHg 65%
    20:00 +7°C° 0 mm 2 m/s 725 mmHg 66%
    21:00 +6°C° 0 mm 2 m/s 726 mmHg 67%
    22:00 +5°C° 0 mm 2 m/s 726 mmHg 67%
    23:00 +4°C° 0 mm 3 m/s 726 mmHg 68%

    Mâine, 29 Martie, Miercuri

    Timp Temperatura Precipitaţii Vânt Presiune Umiditate
    00:00 +4°C° 0 mm 3 m/s 726 mmHg 69%
    01:00 +4°C° 0 mm 3 m/s 726 mmHg 69%
    02:00 +4°C° 0 mm 4 m/s 726 mmHg 69%
    03:00 +4°C° 0 mm 4 m/s 726 mmHg 69%
    04:00 +3°C° 0 mm 4 m/s 726 mmHg 69%
    05:00 +3°C° 0 mm 4 m/s 726 mmHg 70%
    06:00 +3°C° 0 mm 4 m/s 726 mmHg 70%
    07:00 +5°C° 0 mm 4 m/s 726 mmHg 64%
    08:00 +7°C° 0 mm 4 m/s 726 mmHg 59%
    09:00 +10°C° 0 mm 5 m/s 726 mmHg 53%
    10:00 +12°C° 0 mm 5 m/s 726 mmHg 49%
    11:00 +13°C° 0 mm 5 m/s 726 mmHg 46%
    12:00 +15°C° 0 mm 5 m/s 725 mmHg 42%
    13:00 +15°C° 0 mm 5 m/s 725 mmHg 41%
    14:00 +17°C° 0 mm 4 m/s 725 mmHg 40%
    15:00 +17°C° 0 mm 4 m/s 725 mmHg 39%
    16:00 +14°C° 0 mm 4 m/s 726 mmHg 44%
    17:00 +13°C° 0 mm 3 m/s 726 mmHg 49%
    18:00 +12°C° 0 mm 2 m/s 727 mmHg 54%
    19:00 +11°C° 0 mm 1 m/s 727 mmHg 56%
    20:00 +10°C° 0 mm 1 m/s 728 mmHg 58%
    21:00 +8°C° 0 mm 1 m/s 729 mmHg 61%
    22:00 +8°C° 0 mm 1 m/s 729 mmHg 66%
    23:00 +6°C° 0 mm 2 m/s 729 mmHg 72%

    Poimâine, 30 Martie, Joi

    Timp Temperatura Precipitaţii Vânt Presiune Umiditate
    00:00 +5°C° 0 mm 3 m/s 730 mmHg 77%
    01:00 +5°C° 0 mm 2 m/s 730 mmHg 80%
    02:00 +5°C° 0 mm 2 m/s 730 mmHg 83%
    03:00 +4°C° 0 mm 2 m/s 730 mmHg 87%
    04:00 +5°C° 0 mm 1 m/s 730 mmHg 87%
    05:00 +5°C° 0 mm 1 m/s 730 mmHg 88%
    06:00 +5°C° 0 mm 1 m/s 730 mmHg 89%
    07:00 +7°C° 0 mm 1 m/s 730 mmHg 81%
    08:00 +9°C° 0 mm 1 m/s 730 mmHg 73%
    09:00 +10°C° 0 mm 1 m/s 729 mmHg 66%
    10:00 +12°C° 0 mm 1 m/s 729 mmHg 62%
    11:00 +13°C° 0 mm 1 m/s 728 mmHg 57%
    12:00 +14°C° 0 mm 1 m/s 727 mmHg 53%
    13:00 +15°C° 0 mm 1 m/s 726 mmHg 52%
    14:00 +15°C° 0 mm 1 m/s 726 mmHg 51%
    15:00 +16°C° 0 mm 1 m/s 725 mmHg 50%
    16:00 +14°C° 0 mm 1 m/s 725 mmHg 56%
    17:00 +13°C° 0 mm 1 m/s 725 mmHg 62%
    18:00 +10°C° 0 mm 0 m/s 725 mmHg 68%
    19:00 +11°C° 0 mm 1 m/s 725 mmHg 69%
    20:00 +10°C° 0 mm 1 m/s 726 mmHg 70%
    21:00 +9°C° 0 mm 1 m/s 726 mmHg 72%
    22:00 +8°C° 0 mm 2 m/s 726 mmHg 69%
    23:00 +8°C° 0 mm 2 m/s 726 mmHg 67%

    31 Martie, Vineri

    Timp Temperatura Precipitaţii Vânt Presiune Umiditate
    00:00 +8°C° 0 mm 2 m/s 726 mmHg 64%
    01:00 +8°C° 0 mm 3 m/s 725 mmHg 63%
    02:00 +8°C° 0 mm 3 m/s 725 mmHg 62%
    03:00 +8°C° 0 mm 3 m/s 725 mmHg 62%
    04:00 +8°C° 0 mm 3 m/s 725 mmHg 61%
    05:00 +7°C° 0 mm 3 m/s 725 mmHg 61%
    06:00 +7°C° 0 mm 3 m/s 725 mmHg 61%
    07:00 +10°C° 0 mm 2 m/s 725 mmHg 55%
    08:00 +13°C° 0 mm 2 m/s 725 mmHg 50%
    09:00 +15°C° 0 mm 2 m/s 726 mmHg 44%
    10:00 +16°C° 0 mm 2 m/s 725 mmHg 43%
    11:00 +17°C° 0 mm 2 m/s 725 mmHg 41%
    12:00 +18°C° 0 mm 2 m/s 725 mmHg 40%
    13:00 +18°C° 0,2 mm 2 m/s 725 mmHg 42%
    14:00 +17°C° 0,2 mm 2 m/s 725 mmHg 43%
    15:00 +17°C° 0,2 mm 3 m/s 724 mmHg 45%
    16:00 +16°C° 0,5 mm 3 m/s 725 mmHg 50%
    17:00 +14°C° 0,5 mm 3 m/s 725 mmHg 54%
    18:00 +13°C° 0,5 mm 3 m/s 726 mmHg 59%
    19:00 +12°C° 0,5 mm 3 m/s 727 mmHg 65%
    20:00 +11°C° 0,5 mm 4 m/s 727 mmHg 72%
    21:00 +9°C° 0,5 mm 5 m/s 728 mmHg 78%
    22:00 +8°C° 0,6 mm 5 m/s 728 mmHg 80%
    23:00 +7°C° 0,6 mm 5 m/s 728 mmHg 82%

    1 Aprilie, Sâmbătă

    Timp Temperatura Precipitaţii Vânt Presiune Umiditate
    00:00 +7°C° 0,6 mm 5 m/s 729 mmHg 84%
    01:00 +6°C° 0,2 mm 5 m/s 729 mmHg 84%
    02:00 +6°C° 0,2 mm 5 m/s 729 mmHg 85%
    03:00 +5°C° 0,2 mm 5 m/s 729 mmHg 85%
    04:00 +5°C° 0,1 mm 5 m/s 729 mmHg 85%
    05:00 +5°C° 0,1 mm 5 m/s 730 mmHg 85%
    06:00 +3°C° 0,1 mm 5 m/s 730 mmHg 86%
    07:00 +4°C° 0,1 mm 6 m/s 730 mmHg 83%
    08:00 +4°C° 0,1 mm 6 m/s 730 mmHg 80%
    09:00 +4°C° 0,1 mm 7 m/s 731 mmHg 78%
    10:00 +4°C° 0,1 mm 7 m/s 731 mmHg 76%
    11:00 +5°C° 0,1 mm 7 m/s 731 mmHg 74%
    12:00 +5°C° 0,1 mm 7 m/s 731 mmHg 73%
    13:00 +5°C° 0,3 mm 6 m/s 730 mmHg 74%
    14:00 +5°C° 0,3 mm 6 m/s 730 mmHg 75%
    15:00 +5°C° 0,3 mm 5 m/s 730 mmHg 75%
    16:00 +5°C° 0,2 mm 5 m/s 730 mmHg 78%
    17:00 +4°C° 0,2 mm 4 m/s 730 mmHg 81%
    18:00 +4°C° 0,2 mm 4 m/s 730 mmHg 83%
    19:00 +3°C° 0 mm 3 m/s 730 mmHg 85%
    20:00 +3°C° 0 mm 3 m/s 730 mmHg 88%
    21:00 +2°C° 0 mm 3 m/s 731 mmHg 90%
    22:00 +3°C° 0 mm 2 m/s 730 mmHg 90%
    23:00 +3°C° 0 mm 2 m/s 730 mmHg 90%

    2 Aprilie, Duminică

    Timp Temperatura Precipitaţii Vânt Presiune Umiditate
    00:00 +3°C° 0 mm 2 m/s 730 mmHg 89%
    01:00 +3°C° 0,1 mm 2 m/s 730 mmHg 90%
    02:00 +3°C° 0,1 mm 1 m/s 730 mmHg 90%
    03:00 +3°C° 0,1 mm 1 m/s 730 mmHg 91%
    04:00 +3°C° 0,1 mm 1 m/s 730 mmHg 91%
    05:00 +3°C° 0,1 mm 1 m/s 730 mmHg 92%
    06:00 +3°C° 0,1 mm 1 m/s 730 mmHg 93%
    07:00 +4°C° 0 mm 1 m/s 730 mmHg 88%
    08:00 +4°C° 0 mm 2 m/s 730 mmHg 83%
    09:00 +5°C° 0 mm 2 m/s 731 mmHg 78%
    10:00 +6°C° 0 mm 2 m/s 730 mmHg 75%
    11:00 +7°C° 0 mm 2 m/s 730 mmHg 71%
    12:00 +9°C° 0 mm 2 m/s 730 mmHg 68%
    13:00 +9°C° 0 mm 2 m/s 729 mmHg 66%
    14:00 +10°C° 0 mm 2 m/s 729 mmHg 64%
    15:00 +10°C° 0 mm 3 m/s 729 mmHg 62%
    16:00 +9°C° 0 mm 3 m/s 729 mmHg 67%
    17:00 +8°C° 0 mm 3 m/s 729 mmHg 72%
    18:00 +7°C° 0 mm 3 m/s 730 mmHg 77%
    19:00 +6°C° 0 mm 2 m/s 730 mmHg 80%
    20:00 +5°C° 0 mm 2 m/s 730 mmHg 84%
    21:00 +4°C° 0 mm 2 m/s 731 mmHg 88%
    22:00 +4°C° 0 mm 2 m/s 731 mmHg 90%
    23:00 +4°C° 0 mm 2 m/s 731 mmHg 91%
    Arată mai mult